Location: ???????
(38.3360°N, 23.6977°E)
Time: 23:05:36
(UTC+00:00)

CZ-2D R/B - Pass Details

Date: 17 November 2025
Orbit: 404 x 412 km, 97.4° (Epoch: 09 December)

Event Time Altitude Azimuth Distance (km) Brightness Sun altitude
Rises 15:33:48 0° 147° (SSE) 2,331 6.4 -4.9°
Reaches altitude 10° 15:35:55 10° 136° (SE) 1,472 5.3 -5.3°
Maximum altitude 15:38:43 30° 73° (ENE) 768 3.5 -5.8°
Drops below altitude 10° 15:41:30 10° 10° (N) 1,476 5.2 -6.4°
Sets 15:43:38 0° 360° (N) 2,339 6.3 -6.8°
